LiveATC.Net - Listen to live air traffic control over the Internet!


ICAO: CYWG  IATA: YWG   Airport: Winnipeg James Armstrong Richardson International Airport
City: Winnipeg   State/Province: Manitoba
Country: Canada   Continent: North America
CYWG METAR Weather: CYWG 132100Z 24007KT 15SM FEW170 M02/M08 A2986 RMK AC1 AC TR SLP125
CYWG Flight Activity (FlightAware)

CYWG Gnd/Twr/App/Dep
Feed Status: UP   Listeners: 6
Listen in your browser - HTML5 player (in browser, HTML5)
Listen in your browser - requires Flash (in browser, requires Flash)
Click here to listen with your own player (launches your MP3 player)
CYWG Gnd/Twr/App/Dep Audio Archives
FacilityFrequency
Winnipeg Arrival/Approach119.500
Winnipeg Departure119.900
Winnipeg Ground121.900
Winnipeg Tower125.400

NOTICE

Unauthorized use prohibited. See LiveATC.net Terms of Service


Find LiveATC Audio Streams


Airport/ARTCC Code

Frequency Search
(e.g., 124.400, 128.75)
Site-wide search
 


Browse LiveATC Feeds
Top 50 LiveATC Feeds
Bad Weather Areas

LiveATC FAQ
Offer a LiveATC Feed
Contact LiveATC.net
Press Inquiries

LiveATC on iPhone
LiveATC on Android

Windows Phone
Windows 8/10

LiveATC Mobile
(Mobile browser)

ATC Audio Archives
Interesting Recordings

LiveATC Forums


Home Page
About LiveATC.net
Make a Donation
Terms of Use
Privacy Policy

Canadian Air Freqs

AIRMETs/SIGMETs

FAA Airport Status
Nat'l Airspace Status
Arrival Demand Charts


Server Software By:
Icecast.org
Liquidsoap